"Pseudo-MPEC" for C5YPMW2

Created 2021 Sep 15 10:07:09 UT using Find_Orb

Click here for an explanation of pseudo-MPECs

 
 Astrometry: 
     C5YPMW2  C2021 09 13.43195303 27 09.36 -12 13 33.7    ~9DBM 20.86GVNEOCPG96
     C5YPMW2  C2021 09 13.43675703 27 05.68 -12 13 00.4    ~9DBM 20.65GVNEOCPG96
     C5YPMW2  C2021 09 13.44155803 27 02.01 -12 12 25.7    ~9DBM 21.46GVNEOCPG96
     C5YPMW2  C2021 09 13.44634303 26 58.28 -12 11 51.3    ~9DBM 20.86GVNEOCPG96
     C5YPMW2 mC2021 09 13.50425403 26 13.42 -12 04 54.1    ~9DCM 20.24GVNEOCPG96
     C5YPMW2 mC2021 09 13.50466703 26 13.19 -12 04 51.7    ~9DCM 20.36GVNEOCPG96
     C5YPMW2 mC2021 09 13.50507903 26 12.79 -12 04 48.5    ~9DCM 21.58GVNEOCPG96
     C5YPMW2 mC2021 09 14.38498503 15 20.10 -10 17 11.9    ~9E9b 20.58GVNEOCPG96
     C5YPMW2 mC2021 09 14.38539703 15 19.69 -10 17 08.1    ~9E9b 20.93GVNEOCPG96
     C5YPMW2 mC2021 09 14.38581003 15 19.43 -10 17 06.1    ~9E9b 20.50GVNEOCPG96
     C5YPMW2 mC2021 09 14.38807503 15 17.64 -10 16 48.8    ~9E9b 20.60GVNEOCPG96
     C5YPMW2 bC2021 09 15x:ahvm8b9x)q!ddneZ;PZ69i0k.+cv(0i\L(4AstrometryVSi@=L01
     C5YPMW2 bC2021 09 15oh\))2G=Ia6lq'n%31UoBD+ns$3bD*XffapycgJ#nu+TrMcgobLhL01
     C5YPMW2 bC2021 09 15EBV-A`?-M[WDEredacted;(HHPCSlQK?click:liakhere=)GK$aL01
     C5YPMW2 bC2021 09 15D24%C:#hv%kforLHDryJlnp[piv;,%1^$VJ85m-m6)r'0u%(NONBL01
     C5YPMW2 bC2021 09 15c9i_Tu?K-#O=Mg,tty0Xr7hexplanationG=JuFyrFb15H?egjrDL01

Station data:
(G96) Mt. Lemmon Survey  (N32.442754 W110.788720)  US/Arizona.  Observers T.
   A. Pruyne, B. M. Africano, E. J. Christensen, G. A. Farneth, D. C. Fuls,
   A. R. Gibbs, A. D. Grauer, H. Gröller, J. A. Johnson, R. A. Kowalski, S.
   M. Larson, G. J. Leonard, D. Rankin, R. L. Seaman, F. C. Shelly. 1.5-m
   reflector + 10K CCD.
(L01) Višnjan Observatory, Tičan  (N45.290900 E13.749300)  Croatia.
   Observers K. Korlević, E. Pettarin. Measurer E. Pettarin. 1.0-m f/2.9
   reflector + CCD.

Orbital elements:  C5YPMW2
   Perihelion 2021 Jun 24.012264 +/- 0.252947 TT =  0:17:39 (JD 2459389.512264)
Epoch 2021 Sep 15.0 TT = JDT 2459472.5   Earth MOID: 0.0602   AutoNEOCP
M  73.93028322 +/- 0.4502960        (J2000 ecliptic)
n   0.89085793 +/- 0.00272092       Peri.  249.60860 +/- 0.1668360
a   1.06970431 +/- 0.00217806       Node     2.41885 +/- 0.0179861
e   0.2532786 +/- 0.00248784        Incl.   17.21410 +/- 0.1972155
P   1.11/404.10d           H 24.1   G  0.15   U  8.8  
q 0.79877109 +/- 0.00106023    Q 1.34063752 +/- 0.00539462
From 16 observations 2021 Sept. 13-15 (39.1 hr); mean residual 0".39
Residuals in arcseconds: 
210913 G96  .47-  .41+    210913 G96  .42-  .21+    210915 L01  .58-  .21+    
210913 G96  .02-  .64-    210914 G96  .58+  .17-    210915 L01  .04-  .16+    
210913 G96  .57+  .29-    210914 G96  .71-  .57+    210915 L01  .50+  .01-    
210913 G96  .11+  .16-    210914 G96  .22+  .49-    210915 L01  .19+  .07-    
210913 G96  .55-  .56+    210914 G96  .06-  .01-    
210913 G96  .77+  .02-    210915 L01  .08-  .26-    

Ephemerides (geocentric):
Date (UTC) HH   RA              Dec         delta   r     elong  mag " sig PA
---- -- -- --  -------------   -----------  ------ ------ -----  --- ---- ---
2021 09 15 10  03 02 17.325   -08 05 41.14  .09184 1.0641 127.6 20.9 .733 165
2021 09 15 11  03 01 45.639   -08 00 20.21  .09181 1.0643 127.7 20.9 .722 166
2021 09 15 12  03 01 13.943   -07 54 58.95  .09179 1.0644 127.9 20.9 .711 167
2021 09 15 13  03 00 42.236   -07 49 37.39  .09177 1.0646 128.1 20.9 .700 168
2021 09 15 14  03 00 10.520   -07 44 15.52  .09175 1.0648 128.2 20.9 .688 169
2021 09 15 15  02 59 38.793   -07 38 53.35  .09173 1.0650 128.4 20.9 .676 170
2021 09 15 16  02 59 07.058   -07 33 30.90  .09171 1.0651 128.6 20.9 .664 171
2021 09 15 17  02 58 35.314   -07 28 08.16  .09169 1.0653 128.8 20.9 .651 172
2021 09 15 18  02 58 03.561   -07 22 45.14  .09168 1.0655 128.9 20.9 .638 173
2021 09 15 19  02 57 31.799   -07 17 21.86  .09166 1.0657 129.1 20.9 .625 174
2021 09 15 20  02 57 00.030   -07 11 58.30  .09164 1.0658 129.3 20.9 .612 176
2021 09 15 21  02 56 28.254   -07 06 34.49  .09163 1.0660 129.4 20.9 .599 177
2021 09 15 22  02 55 56.470   -07 01 10.43  .09161 1.0662 129.6 20.9 .586 179
2021 09 15 23  02 55 24.679   -06 55 46.13  .09160 1.0664 129.8 20.9 .573   1
2021 09 16 00  02 54 52.882   -06 50 21.59  .09159 1.0665 129.9 20.8 .560   3
2021 09 16 01  02 54 21.078   -06 44 56.82  .09157 1.0667 130.1 20.8 .548   5
2021 09 16 02  02 53 49.269   -06 39 31.82  .09156 1.0669 130.3 20.8 .535   7
2021 09 16 03  02 53 17.454   -06 34 06.61  .09155 1.0671 130.5 20.8 .524   9
2021 09 16 04  02 52 45.635   -06 28 41.18  .09154 1.0673 130.6 20.8 .513  12
2021 09 16 05  02 52 13.810   -06 23 15.56  .09153 1.0674 130.8 20.8 .503  15
2021 09 16 06  02 51 41.981   -06 17 49.73  .09152 1.0676 131.0 20.8 .494  18
2021 09 16 07  02 51 10.148   -06 12 23.72  .09151 1.0678 131.1 20.8 .486  21
2021 09 16 08  02 50 38.312   -06 06 57.52  .09150 1.0680 131.3 20.8 .479  24
2021 09 16 09  02 50 06.472   -06 01 31.15  .09150 1.0681 131.5 20.8 .474  27
2021 09 16 10  02 49 34.629   -05 56 04.61  .09149 1.0683 131.6 20.8 .471  31
2021 09 16 11  02 49 02.783   -05 50 37.91  .09149 1.0685 131.8 20.8 .469  35
2021 09 16 12  02 48 30.935   -05 45 11.06  .09148 1.0687 132.0 20.8 .469  39
2021 09 16 13  02 47 59.086   -05 39 44.05  .09148 1.0688 132.2 20.8 .472  42
2021 09 16 14  02 47 27.234   -05 34 16.91  .09148 1.0690 132.3 20.8 .477  46
2021 09 16 15  02 46 55.382   -05 28 49.63  .09147 1.0692 132.5 20.8 .484  50
2021 09 16 16  02 46 23.528   -05 23 22.23  .09147 1.0694 132.7 20.8 .493  54
2021 09 16 17  02 45 51.675   -05 17 54.71  .09147 1.0695 132.8 20.8 .505  58
2021 09 16 18  02 45 19.821   -05 12 27.08  .09147 1.0697 133.0 20.8 .519  61
2021 09 16 19  02 44 47.967   -05 06 59.34  .09147 1.0699 133.2 20.8 .536  65
2021 09 16 20  02 44 16.114   -05 01 31.50  .09147 1.0701 133.3 20.8 .554  68
2021 09 16 21  02 43 44.262   -04 56 03.57  .09147 1.0702 133.5 20.8 .575  71
2021 09 16 22  02 43 12.411   -04 50 35.56  .09148 1.0704 133.7 20.8 .598  74
2021 09 16 23  02 42 40.562   -04 45 07.47  .09148 1.0706 133.9 20.8 .622  77
2021 09 17 00  02 42 08.715   -04 39 39.32  .09148 1.0708 134.0 20.7 .649  80
2021 09 17 01  02 41 36.870   -04 34 11.10  .09149 1.0709 134.2 20.7 .677  82
2021 09 17 02  02 41 05.028   -04 28 42.83  .09150 1.0711 134.4 20.7 .707  84
2021 09 17 03  02 40 33.189   -04 23 14.51  .09150 1.0713 134.5 20.7 .738  87
2021 09 17 04  02 40 01.354   -04 17 46.15  .09151 1.0715 134.7 20.7 .771  89
2021 09 17 05  02 39 29.522   -04 12 17.76  .09152 1.0716 134.9 20.7 .805  90
2021 09 17 06  02 38 57.695   -04 06 49.34  .09153 1.0718 135.0 20.7 .840  92
2021 09 17 07  02 38 25.872   -04 01 20.90  .09154 1.0720 135.2 20.7 .877  94
2021 09 17 08  02 37 54.054   -03 55 52.45  .09155 1.0722 135.4 20.7 .914  95
2021 09 17 09  02 37 22.242   -03 50 24.00  .09156 1.0723 135.6 20.7 .953  97